QPF
0.02 0.02 0.01 0.01 0.01 0.01 0.01 0.00 0.00 0.00 0.00 0.00 0.00 0.00 0.00 0.00 0.00 0.00 0.00 0.00 0.00 0.00 0.00 0.00 0.00 0.00 0.00 0.00 0.00 0.00 0.00 0.00 0.00 0.00 0.00 0.00 0.00 0.00 0.00 0.00 0.00 0.00 0.00
0.01 0.01 0.04 0.04 0.02 0.01 0.01 0.00 0.00 0.00 0.00 0.00 0.00 0.00 0.00 0.00 0.00 0.00 0.00 0.00 0.00 0.00 0.00 0.00 0.00 0.00 0.00 0.00 0.00 0.00 0.00 0.00 0.00 0.00 0.00 0.00 0.00 0.00 0.00 0.00 0.00 0.00 0.00
0.02 0.02 0.05 0.05 0.03 0.01 0.00 0.00 0.00 0.00 0.00 0.00 0.00 0.00 0.00 0.00 0.00 0.00 0.00 0.00 0.00 0.00 0.00 0.00 0.00 0.00 0.00 0.00 0.00 0.00 0.00 0.00 0.00 0.00 0.00 0.00 0.00 0.00 0.00 0.00 0.00 0.00 0.00
0.06 0.10 0.12 0.12 0.09 0.02 0.00 0.00 0.00 0.00 0.00 0.00 0.00 0.00 0.00 0.00 0.00 0.00 0.00 0.00 0.00 0.00 0.00 0.00 0.00 0.00 0.00 0.00 0.00 0.00 0.00 0.00 0.00 0.00 0.00 0.00 0.00 0.00 0.00 0.00 0.00 0.00 0.00
0.09 0.12 0.18 0.15 0.07 0.02 0.00 0.00 0.00 0.00 0.00 0.00 0.00 0.00 0.00 0.00 0.00 0.00 0.00 0.00 0.00 0.00 0.00 0.00 0.00 0.00 0.00 0.00 0.00 0.00 0.00 0.00 0.00 0.00 0.00 0.00 0.00 0.00 0.00 0.00 0.00 0.00 0.00
0.12 0.11 0.09 0.05 0.01 0.00 0.00 0.00 0.00 0.00 0.00 0.00 0.00 0.00 0.00 0.00 0.00 0.00 0.00 0.00 0.00 0.00 0.00 0.00 0.00 0.00 0.00 0.00 0.00 0.00 0.00 0.00 0.00 0.00 0.00 0.00 0.00 0.00 0.00 0.00 0.00 0.00 0.00
0.14 0.10 0.05 0.02 0.00 0.00 0.00 0.00 0.00 0.00 0.00 0.00 0.00 0.00 0.00 0.00 0.00 0.00 0.00 0.00 0.00 0.00 0.00 0.00 0.00 0.00 0.00 0.00 0.00 0.00 0.00 0.00 0.00 0.00 0.00 0.00 0.00 0.00 0.00 0.00 0.00 0.00 0.00
0.08 0.05 0.01 0.00 0.00 0.00 0.00 0.00 0.00 0.00 0.00 0.00 0.00 0.00 0.00 0.00 0.00 0.00 0.00 0.00 0.00 0.00 0.00 0.00 0.00 0.00 0.00 0.00 0.00 0.00 0.00 0.00 0.00 0.00 0.00 0.00 0.00 0.00 0.00 0.00 0.00 0.00 0.00
0.05 0.02 0.00 0.00 0.00 0.00 0.00 0.00 0.00 0.00 0.00 0.00 0.00 0.00 0.00 0.00 0.00 0.00 0.00 0.00 0.00 0.00 0.00 0.00 0.00 0.00 0.00 0.00 0.00 0.00 0.00 0.00 0.00 0.00 0.00 0.00 0.00 0.00 0.00 0.00 0.00 0.00 0.00
0.01 0.00 0.00 0.00 0.00 0.00 0.00 0.00 0.00 0.00 0.00 0.00 0.00 0.00 0.00 0.00 0.00 0.00 0.00 0.00 0.00 0.00 0.00 0.00 0.00 0.00 0.00 0.00 0.00 0.00 0.00 0.00 0.00 0.00 0.00 0.00 0.00 0.00 0.00 0.00 0.00 0.00 0.00
0.00 0.00 0.00 0.00 0.00 0.00 0.00 0.00 0.00 0.00 0.00 0.00 0.00 0.00 0.00 0.00 0.00 0.00 0.00 0.00 0.00 0.00 0.00 0.00 0.00 0.00 0.00 0.00 0.00 0.00 0.00 0.00 0.00 0.00 0.00 0.00 0.00 0.00 0.00 0.00 0.00 0.00 0.00
0.00 0.00 0.00 0.00 0.00 0.00 0.00 0.00 0.00 0.00 0.00 0.00 0.00 0.00 0.00 0.00 0.00 0.00 0.00 0.00 0.00 0.00 0.00 0.00 0.00 0.00 0.00 0.00 0.00 0.00 0.00 0.00 0.00 0.00 0.00 0.00 0.00 0.00 0.00 0.00 0.00 0.00 0.00
0.00 0.00 0.00 0.00 0.00 0.00 0.00 0.00 0.00 0.00 0.00 0.00 0.00 0.00 0.00 0.00 0.00 0.00 0.00 0.00 0.00 0.00 0.00 0.00 0.00 0.00 0.00 0.00 0.00 0.00 0.00 0.00 0.00 0.00 0.00 0.00 0.00 0.00 0.00 0.00 0.00 0.00 0.00
0.00 0.00 0.00 0.00 0.00 0.00 0.00 0.00 0.00 0.00 0.00 0.00 0.00 0.00 0.00 0.00 0.00 0.00 0.00 0.00 0.00 0.00 0.00 0.00 0.00 0.00 0.00 0.00 0.00 0.00 0.00 0.00 0.00 0.00 0.00 0.00 0.00 0.00 0.00 0.00 0.00 0.00 0.00
0.00 0.00 0.00 0.00 0.00 0.00 0.00 0.00 0.00 0.00 0.00 0.00 0.00 0.00 0.00 0.00 0.00 0.00 0.00 0.00 0.00 0.00 0.00 0.00 0.00 0.00 0.00 0.00 0.00 0.00 0.00 0.00 0.00 0.00 0.00 0.00 0.00 0.00 0.00 0.00 0.00 0.00 0.00
0.00 0.00 0.00 0.00 0.00 0.00 0.00 0.00 0.00 0.00 0.00 0.00 0.00 0.00 0.00 0.00 0.00 0.00 0.00 0.00 0.00 0.00 0.00 0.00 0.00 0.00 0.00 0.00 0.00 0.00 0.00 0.00 0.00 0.00 0.00 0.00 0.00 0.00 0.00 0.00 0.00 0.00 0.00
0.01 0.00 0.00 0.00 0.00 0.00 0.00 0.00 0.00 0.00 0.00 0.00 0.00 0.00 0.00 0.00 0.00 0.00 0.00 0.00 0.00 0.00 0.00 0.00 0.00 0.00 0.00 0.00 0.00 0.00 0.00 0.00 0.00 0.00 0.00 0.00 0.00 0.00 0.00 0.00 0.00 0.00 0.00
0.00 0.00 0.00 0.00 0.00 0.00 0.00 0.00 0.00 0.00 0.00 0.00 0.00 0.00 0.00 0.00 0.00 0.00 0.00 0.00 0.00 0.00 0.00 0.00 0.00 0.00 0.00 0.00 0.00 0.00 0.00 0.00 0.00 0.00 0.00 0.00 0.00 0.00 0.00 0.00 0.00 0.00 0.00
0.00 0.00 0.00 0.00 0.00 0.00 0.00 0.00 0.00 0.00 0.00 0.00 0.00 0.00 0.00 0.00 0.00 0.00 0.00 0.00 0.00 0.00 0.00 0.00 0.00 0.00 0.00 0.00 0.00 0.00 0.00 0.00 0.00 0.00 0.00 0.00 0.00 0.00 0.00 0.00 0.00 0.00 0.00
0.00 0.00 0.00 0.00 0.00 0.00 0.00 0.00 0.00 0.00 0.00 0.00 0.00 0.00 0.00 0.00 0.00 0.00 0.00 0.00 0.00 0.00 0.00 0.00 0.00 0.00 0.00 0.00 0.00 0.00 0.00 0.00 0.00 0.00 0.00 0.00 0.00 0.00 0.00 0.00 0.00 0.00 0.00
0.00 0.00 0.00 0.00 0.00 0.00 0.00 0.00 0.00 0.00 0.00 0.00 0.00 0.00 0.00 0.00 0.00 0.00 0.00 0.00 0.00 0.00 0.00 0.00 0.00 0.00 0.00 0.00 0.00 0.00 0.00 0.00 0.00 0.00 0.00 0.00 0.00 0.00 0.00 0.00 0.00 0.00 0.00
0.00 0.00 0.00 0.00 0.00 0.00 0.00 0.00 0.00 0.00 0.00 0.00 0.00 0.00 0.00 0.00 0.00 0.00 0.00 0.00 0.00 0.00 0.00 0.00 0.00 0.00 0.00 0.00 0.00 0.00 0.00 0.00 0.00 0.00 0.00 0.00 0.00 0.00 0.00 0.00 0.00 0.00 0.00
0.00 0.00 0.00 0.00 0.00 0.00 0.00 0.00 0.00 0.00 0.00 0.00 0.00 0.00 0.00 0.00 0.00 0.00 0.00 0.00 0.00 0.00 0.00 0.00 0.00 0.00 0.00 0.00 0.00 0.00 0.00 0.00 0.00 0.00 0.00 0.00 0.00 0.00 0.00 0.00 0.00 0.00 0.00
0.00 0.00 0.00 0.00 0.00 0.00 0.00 0.00 0.00 0.00 0.00 0.00 0.00 0.00 0.00 0.00 0.00 0.00 0.00 0.00 0.00 0.00 0.00 0.00 0.00 0.00 0.00 0.00 0.00 0.00 0.00 0.00 0.00 0.00 0.00 0.00 0.00 0.00 0.00 0.00 0.00 0.00 0.00
0.00 0.00 0.00 0.00 0.00 0.00 0.00 0.00 0.00 0.00 0.00 0.00 0.00 0.00 0.00 0.00 0.00 0.00 0.00 0.00 0.00 0.00 0.00 0.00 0.00 0.00 0.00 0.00 0.00 0.00 0.00 0.00 0.00 0.00 0.00 0.00 0.00 0.00 0.00 0.00 0.00 0.00 0.00
0.00 0.00 0.00 0.00 0.00 0.00 0.00 0.00 0.00 0.00 0.00 0.00 0.00 0.00 0.00 0.00 0.00 0.00 0.00 0.00 0.00 0.00 0.00 0.00 0.00 0.00 0.00 0.00 0.00 0.00 0.00 0.00 0.00 0.00 0.00 0.00 0.00 0.00 0.00 0.00 0.00 0.00 0.00
MSLP
1005.00 1005.95 1006.88 1008.13 1008.97 1010.07 1010.96 1012.13 1013.26 1013.73 1014.29 1015.36 1015.87 1016.56 1016.68 1016.86 1016.85 1017.39 1017.65 1018.60 1018.71 1019.20 1019.45 1019.43 1019.31 1019.50 1019.71 1019.53 1019.43 1019.51 1019.54 1019.74 1019.47 1018.97 1018.45 1017.35 1016.55 1015.73 1014.96 1014.50 1013.97 1013.45 1012.98
1004.49 1005.65 1007.24 1008.35 1009.13 1010.27 1011.62 1012.49 1013.22 1014.02 1014.67 1015.50 1015.90 1016.67 1017.05 1016.93 1017.10 1017.67 1018.28 1018.98 1018.90 1019.84 1020.14 1019.50 1019.71 1019.75 1019.64 1019.77 1019.87 1019.91 1019.77 1019.85 1019.79 1019.29 1018.52 1017.92 1016.88 1015.85 1015.33 1014.74 1014.05 1013.45 1013.04
1005.20 1006.42 1007.52 1008.53 1009.33 1010.61 1011.95 1012.76 1013.20 1014.10 1014.95 1015.77 1016.04 1016.67 1017.29 1017.08 1017.46 1018.10 1018.69 1019.32 1019.36 1020.07 1020.49 1019.84 1019.84 1019.84 1020.03 1020.03 1020.07 1020.26 1019.90 1019.73 1019.57 1019.44 1019.07 1018.18 1017.09 1016.05 1015.60 1014.93 1014.19 1013.50 1012.91
1006.47 1007.29 1007.20 1008.81 1009.52 1010.31 1011.49 1012.70 1013.42 1014.31 1015.35 1016.20 1016.39 1017.02 1017.47 1017.31 1017.68 1018.47 1019.09 1019.41 1019.65 1020.17 1020.79 1020.19 1019.87 1019.93 1020.05 1020.19 1020.10 1020.18 1019.99 1019.81 1019.49 1019.33 1019.13 1018.51 1017.72 1016.41 1015.73 1015.41 1014.62 1013.76 1013.07
1005.53 1007.01 1007.69 1008.80 1009.62 1010.69 1011.92 1013.31 1013.35 1014.83 1015.63 1016.58 1016.83 1017.40 1017.81 1017.84 1018.12 1018.53 1019.46 1019.73 1019.84 1020.25 1021.09 1020.39 1020.25 1020.21 1019.96 1020.10 1019.99 1020.17 1019.93 1019.78 1019.67 1019.41 1019.27 1018.84 1018.00 1017.17 1016.48 1015.84 1015.29 1014.46 1013.39
1005.57 1006.78 1008.28 1009.26 1010.14 1010.84 1012.41 1013.13 1014.36 1014.87 1015.96 1017.04 1017.14 1017.84 1018.05 1018.25 1018.64 1018.82 1019.63 1019.91 1020.22 1020.39 1020.98 1020.45 1020.45 1020.50 1020.18 1020.08 1019.80 1019.94 1019.82 1019.65 1019.73 1019.81 1019.53 1019.24 1018.31 1017.55 1016.80 1016.24 1015.67 1015.15 1014.19
1005.25 1007.19 1008.31 1009.37 1010.68 1011.47 1012.47 1013.27 1014.26 1015.34 1016.47 1016.97 1017.88 1018.31 1018.53 1018.90 1019.16 1019.37 1019.84 1020.19 1020.22 1020.79 1020.79 1020.65 1020.64 1020.74 1020.46 1020.21 1020.11 1019.85 1019.45 1019.53 1019.48 1019.48 1019.47 1019.13 1018.54 1017.89 1017.53 1016.63 1016.17 1015.73 1015.17
1006.07 1007.54 1008.46 1009.73 1010.80 1011.70 1012.12 1013.34 1014.91 1015.87 1016.57 1017.29 1018.07 1018.61 1018.55 1019.25 1019.52 1019.53 1019.86 1020.45 1020.51 1020.58 1020.87 1021.03 1021.12 1020.98 1020.71 1020.56 1020.64 1020.39 1019.99 1019.81 1019.57 1019.27 1019.15 1018.87 1018.43 1017.91 1017.45 1016.89 1016.62 1016.05 1015.08
1005.97 1007.16 1008.11 1009.34 1010.66 1011.85 1012.39 1013.85 1015.11 1015.93 1016.95 1017.11 1017.97 1018.84 1019.11 1019.54 1019.53 1019.69 1020.09 1020.37 1020.81 1020.78 1021.04 1021.31 1021.49 1021.31 1020.98 1020.79 1020.86 1020.97 1020.47 1019.85 1019.37 1019.12 1018.83 1018.40 1017.96 1017.66 1017.26 1016.80 1016.85 1016.58 1015.92
1004.87 1006.77 1007.94 1008.47 1009.80 1012.31 1013.01 1014.12 1015.15 1016.13 1017.05 1017.47 1018.42 1019.37 1019.20 1019.28 1019.48 1019.73 1020.19 1020.44 1020.96 1021.00 1021.30 1021.66 1021.70 1021.67 1021.32 1021.09 1021.15 1021.15 1020.75 1020.93 1020.28 1019.37 1018.94 1018.66 1018.50 1017.97 1017.51 1017.46 1017.30 1017.02 1016.61
1005.49 1007.03 1007.81 1008.02 1010.64 1012.31 1013.38 1014.30 1015.14 1016.25 1017.38 1018.39 1018.93 1019.70 1019.53 1019.15 1019.80 1019.78 1020.01 1020.46 1020.71 1021.14 1021.83 1021.96 1022.06 1021.83 1021.68 1021.58 1021.65 1021.40 1021.38 1021.14 1020.70 1020.27 1019.75 1019.47 1019.25 1018.81 1018.19 1017.67 1017.43 1017.15 1016.80
1006.40 1007.13 1008.41 1008.94 1011.12 1012.27 1013.25 1014.42 1015.37 1016.51 1017.68 1018.61 1019.48 1020.35 1019.97 1019.71 1019.85 1020.01 1020.14 1020.49 1020.89 1021.34 1022.07 1022.19 1022.25 1022.37 1022.19 1022.25 1022.13 1021.76 1021.41 1021.12 1020.76 1020.88 1020.57 1020.55 1020.50 1019.85 1018.89 1018.25 1017.67 1017.25 1016.92
1007.49 1008.00 1009.60 1009.88 1011.41 1012.46 1013.28 1014.29 1015.75 1016.55 1017.76 1018.87 1019.69 1020.14 1020.29 1020.34 1020.07 1020.10 1020.47 1020.78 1021.04 1021.60 1021.95 1022.39 1022.46 1022.56 1022.47 1022.66 1022.75 1022.25 1021.91 1021.89 1021.83 1021.61 1021.68 1021.42 1021.01 1020.39 1019.12 1018.33 1017.61 1017.33 1017.06
1006.38 1008.70 1010.13 1009.81 1011.74 1012.75 1013.61 1013.99 1015.48 1016.56 1017.78 1018.73 1019.50 1019.75 1020.16 1020.43 1020.44 1020.73 1021.07 1021.20 1021.54 1021.91 1022.35 1022.57 1022.79 1022.89 1023.22 1023.47 1023.35 1023.06 1023.00 1022.64 1022.57 1022.39 1022.16 1021.47 1020.79 1020.23 1019.84 1019.49 1019.11 1018.59 1018.11
1006.91 1008.89 1009.53 1010.61 1012.16 1013.39 1014.43 1014.90 1015.86 1016.61 1017.16 1018.09 1018.68 1019.28 1019.60 1020.09 1020.81 1020.71 1021.31 1021.65 1021.97 1022.35 1022.86 1023.29 1023.74 1023.68 1024.13 1024.30 1024.00 1023.81 1023.66 1023.29 1023.11 1022.75 1022.29 1022.13 1021.75 1021.21 1020.89 1020.23 1019.83 1019.61 1019.43
1007.77 1009.57 1010.40 1011.28 1012.36 1013.56 1014.75 1016.20 1016.60 1016.79 1017.34 1018.13 1018.58 1018.59 1019.08 1019.72 1020.39 1020.93 1021.61 1021.85 1022.38 1022.42 1023.45 1024.32 1024.50 1024.67 1024.87 1025.07 1024.81 1024.77 1024.39 1024.13 1023.87 1023.14 1022.91 1022.89 1022.57 1021.91 1021.23 1020.62 1020.35 1020.24 1019.97
1008.86 1009.43 1009.97 1011.42 1012.86 1014.19 1015.39 1016.38 1017.25 1018.18 1018.20 1018.36 1018.69 1018.74 1019.33 1020.12 1020.89 1021.18 1021.46 1022.13 1022.63 1023.08 1024.01 1024.98 1025.22 1025.23 1025.36 1025.45 1025.45 1025.38 1025.46 1024.75 1024.31 1023.90 1023.61 1023.22 1022.92 1022.51 1022.25 1021.74 1021.29 1020.76 1020.45
1008.73 1009.61 1010.78 1012.27 1013.30 1014.53 1015.57 1016.31 1017.26 1018.14 1018.63 1019.26 1019.42 1019.26 1020.02 1020.77 1021.24 1021.43 1021.75 1022.37 1023.47 1024.27 1024.76 1025.64 1025.83 1025.93 1026.11 1025.89 1025.95 1025.85 1025.97 1025.53 1024.68 1024.40 1024.12 1023.83 1023.53 1023.31 1023.05 1022.60 1022.39 1022.43 1021.70
1008.82 1010.70 1011.65 1012.77 1013.76 1014.71 1015.73 1016.63 1017.08 1017.61 1018.57 1019.49 1020.17 1020.41 1020.94 1021.64 1021.50 1021.99 1022.24 1022.91 1024.14 1024.89 1025.53 1025.98 1026.15 1026.29 1026.27 1026.45 1026.45 1026.33 1026.26 1025.91 1025.75 1025.25 1024.97 1024.73 1024.29 1023.97 1023.78 1023.50 1022.93 1022.74 1022.41
1009.63 1011.22 1012.25 1013.29 1014.22 1015.16 1015.80 1016.28 1017.19 1018.03 1018.78 1019.50 1020.09 1020.52 1021.31 1021.55 1022.03 1022.78 1022.93 1023.60 1024.68 1025.40 1025.87 1026.16 1026.46 1026.37 1026.64 1026.73 1026.75 1026.86 1026.74 1026.39 1026.02 1025.73 1025.42 1025.32 1025.08 1024.65 1024.51 1024.20 1023.82 1023.28 1023.19
1010.76 1011.95 1012.56 1013.46 1014.19 1014.83 1015.89 1016.62 1017.53 1018.28 1018.99 1019.98 1020.62 1020.96 1021.07 1021.28 1022.38 1023.05 1023.71 1024.54 1025.05 1025.53 1026.00 1026.42 1026.72 1026.81 1026.95 1027.18 1027.03 1027.14 1026.86 1026.29 1026.37 1026.28 1025.85 1025.69 1025.35 1025.01 1024.81 1024.28 1024.09 1024.09 1023.78
1010.84 1011.89 1012.66 1013.32 1014.29 1015.41 1016.04 1017.09 1017.46 1018.57 1019.40 1020.13 1021.16 1021.45 1021.34 1021.57 1022.32 1023.48 1024.23 1024.98 1025.51 1025.74 1026.05 1026.41 1026.86 1027.17 1027.23 1027.41 1027.40 1027.51 1027.20 1026.93 1026.68 1026.63 1026.32 1026.13 1025.74 1025.38 1025.06 1024.90 1024.69 1024.42 1024.51
1011.14 1011.65 1012.58 1013.50 1014.33 1015.27 1016.27 1017.14 1017.86 1018.77 1019.66 1020.48 1020.82 1021.58 1021.94 1022.45 1023.05 1023.54 1024.53 1025.30 1025.82 1026.19 1026.48 1026.63 1027.18 1027.58 1027.60 1027.62 1027.59 1027.84 1027.18 1027.01 1026.96 1026.85 1026.69 1026.55 1026.31 1026.11 1025.79 1025.45 1025.34 1025.25 1024.95
1011.24 1011.99 1013.04 1013.82 1014.71 1015.33 1016.17 1017.19 1018.09 1018.83 1019.48 1020.01 1020.60 1021.36 1022.07 1022.93 1023.37 1024.13 1024.87 1025.38 1025.93 1026.54 1026.85 1027.02 1027.40 1027.40 1027.50 1027.52 1027.83 1027.68 1027.26 1027.26 1026.90 1026.77 1026.69 1026.74 1026.62 1026.23 1025.98 1025.97 1025.74 1025.67 1025.64
1011.69 1012.64 1013.09 1013.68 1014.44 1015.44 1016.46 1017.26 1017.90 1018.49 1019.24 1019.65 1020.51 1021.45 1022.08 1022.90 1023.85 1024.37 1025.10 1025.69 1026.18 1026.85 1027.37 1027.57 1027.68 1027.80 1027.65 1027.70 1027.83 1027.43 1026.91 1027.10 1027.01 1026.77 1026.80 1026.91 1026.67 1026.69 1026.50 1026.29 1026.10 1026.02 1026.09
1011.65 1012.27 1012.95 1013.58 1014.53 1015.21 1016.13 1016.89 1017.75 1018.37 1018.98 1019.63 1020.51 1021.23 1022.01 1022.77 1023.69 1024.43 1025.02 1025.84 1026.67 1027.16 1027.47 1027.72 1027.87 1027.88 1027.85 1027.97 1027.97 1027.57 1027.31 1027.18 1027.18 1027.02 1027.07 1027.13 1027.09 1027.01 1026.78 1026.79 1026.73 1026.57 1026.36
Thickness
5724 5721 5727 5725 5722 5720 5722 5719 5713 5712 5709 5703 5701 5695 5694 5693 5694 5689 5687 5676 5674 5666 5661 5657 5653 5645 5638 5634 5630 5624 5618 5609 5605 5601 5598 5599 5596 5594 5591 5586 5582 5577 5572
5735 5726 5719 5715 5717 5715 5711 5710 5707 5704 5702 5698 5695 5690 5687 5690 5688 5683 5677 5670 5670 5658 5651 5652 5645 5640 5635 5629 5623 5617 5612 5604 5598 5595 5592 5589 5590 5590 5586 5581 5577 5574 5569
5716 5716 5714 5709 5712 5706 5701 5702 5704 5700 5696 5691 5689 5686 5682 5684 5681 5675 5670 5662 5661 5652 5643 5644 5640 5635 5629 5624 5619 5611 5606 5602 5596 5591 5586 5584 5584 5583 5577 5574 5572 5570 5567
5701 5703 5711 5702 5702 5703 5701 5698 5697 5694 5688 5683 5682 5680 5676 5678 5676 5669 5662 5658 5655 5647 5635 5638 5637 5631 5626 5619 5615 5608 5603 5599 5594 5588 5581 5578 5577 5579 5576 5569 5566 5564 5562
5706 5698 5697 5694 5696 5694 5690 5685 5693 5684 5681 5674 5675 5671 5667 5669 5669 5664 5656 5651 5649 5642 5629 5634 5631 5627 5625 5618 5613 5604 5601 5595 5588 5583 5576 5570 5569 5568 5567 5564 5558 5556 5557
5695 5694 5687 5684 5684 5685 5680 5681 5677 5678 5674 5666 5670 5663 5662 5661 5659 5658 5649 5645 5640 5636 5627 5630 5626 5621 5619 5615 5611 5603 5598 5593 5583 5574 5569 5563 5564 5561 5559 5556 5552 5551 5549
5694 5684 5679 5681 5677 5675 5673 5675 5672 5669 5664 5664 5656 5653 5653 5650 5649 5648 5642 5636 5636 5627 5625 5624 5621 5616 5613 5610 5604 5600 5597 5589 5581 5574 5566 5561 5559 5556 5550 5548 5542 5537 5535
5681 5675 5675 5674 5673 5669 5673 5668 5661 5659 5659 5655 5650 5647 5649 5644 5642 5642 5637 5630 5628 5626 5621 5617 5612 5610 5608 5604 5596 5592 5590 5583 5576 5573 5566 5561 5556 5553 5547 5543 5536 5531 5530
5674 5673 5675 5672 5668 5665 5667 5658 5654 5654 5650 5652 5648 5641 5638 5636 5637 5635 5630 5627 5621 5621 5616 5610 5604 5602 5600 5598 5590 5585 5583 5579 5574 5570 5565 5561 5557 5551 5544 5540 5531 5524 5520
5680 5670 5669 5673 5667 5653 5654 5650 5650 5645 5644 5644 5638 5629 5632 5634 5632 5629 5625 5622 5616 5614 5608 5602 5598 5595 5595 5592 5584 5579 5576 5566 5562 5562 5558 5554 5548 5544 5539 5531 5523 5517 5509
5665 5661 5664 5669 5654 5650 5646 5643 5643 5639 5634 5628 5626 5619 5624 5630 5624 5625 5623 5617 5613 5609 5600 5596 5591 5589 5587 5583 5576 5573 5568 5561 5557 5552 5550 5544 5538 5533 5529 5525 5518 5510 5501
5655 5649 5649 5654 5644 5642 5640 5636 5635 5631 5624 5619 5614 5609 5616 5619 5619 5619 5618 5612 5608 5602 5593 5589 5586 5580 5578 5573 5568 5567 5563 5557 5553 5545 5541 5533 5523 5519 5518 5515 5510 5502 5492
5626 5638 5630 5642 5635 5634 5635 5632 5625 5624 5617 5612 5609 5608 5608 5608 5612 5612 5608 5605 5602 5594 5589 5583 5580 5574 5572 5564 5558 5558 5554 5547 5541 5536 5528 5521 5515 5511 5512 5508 5503 5494 5485
5629 5618 5618 5638 5630 5629 5627 5631 5623 5619 5613 5610 5606 5606 5604 5603 5604 5601 5598 5597 5594 5587 5580 5576 5571 5567 5560 5553 5550 5547 5541 5538 5532 5527 5521 5517 5514 5508 5502 5494 5486 5479 5474
5625 5618 5627 5631 5623 5617 5616 5620 5617 5614 5614 5609 5607 5605 5604 5601 5594 5596 5590 5588 5584 5578 5571 5564 5557 5555 5548 5543 5542 5538 5533 5529 5524 5520 5516 5509 5502 5498 5490 5485 5478 5471 5463
5619 5614 5616 5617 5618 5615 5610 5601 5601 5606 5607 5603 5602 5604 5602 5596 5592 5589 5584 5582 5575 5571 5561 5551 5547 5543 5539 5534 5532 5526 5523 5519 5514 5514 5508 5499 5492 5490 5487 5482 5473 5466 5460
5606 5610 5617 5616 5611 5605 5601 5598 5594 5589 5591 5594 5596 5597 5592 5587 5582 5581 5580 5573 5567 5560 5551 5540 5537 5534 5531 5527 5522 5517 5510 5510 5508 5504 5499 5494 5487 5483 5477 5470 5465 5462 5458
5605 5604 5606 5603 5601 5597 5594 5592 5588 5586 5586 5584 5583 5585 5581 5577 5573 5573 5571 5565 5554 5545 5539 5530 5526 5524 5520 5519 5512 5509 5501 5499 5500 5496 5492 5486 5479 5474 5466 5461 5455 5445 5446
5604 5595 5593 5592 5591 5588 5584 5582 5584 5585 5580 5573 5571 5571 5568 5562 5565 5562 5559 5554 5542 5535 5527 5522 5519 5516 5514 5507 5503 5500 5494 5492 5487 5485 5480 5473 5469 5465 5457 5451 5450 5444 5440
5594 5585 5584 5583 5582 5580 5581 5582 5578 5575 5572 5567 5566 5565 5558 5558 5554 5549 5547 5541 5531 5524 5518 5515 5512 5511 5505 5500 5496 5490 5485 5484 5481 5477 5473 5464 5458 5454 5448 5444 5440 5438 5432
5580 5576 5575 5575 5576 5578 5573 5572 5568 5565 5563 5557 5554 5553 5552 5554 5544 5540 5533 5525 5521 5516 5512 5507 5504 5501 5497 5491 5489 5482 5480 5480 5473 5468 5465 5459 5454 5450 5444 5442 5436 5428 5425
5575 5571 5571 5570 5568 5564 5564 5559 5562 5556 5552 5549 5541 5540 5544 5544 5537 5527 5521 5514 5510 5508 5505 5502 5498 5492 5489 5484 5480 5473 5472 5469 5466 5460 5456 5450 5447 5443 5439 5433 5427 5424 5417
5564 5566 5563 5562 5562 5557 5554 5552 5552 5547 5543 5539 5538 5534 5532 5528 5523 5520 5512 5505 5501 5498 5496 5495 5488 5483 5480 5476 5471 5465 5467 5463 5459 5454 5447 5441 5437 5432 5428 5425 5420 5413 5410
5560 5559 5554 5553 5550 5550 5548 5545 5542 5539 5538 5536 5532 5527 5522 5515 5513 5507 5501 5497 5494 5489 5486 5484 5478 5477 5473 5468 5462 5460 5460 5455 5453 5447 5440 5433 5429 5427 5422 5415 5412 5407 5401
5549 5548 5550 5551 5549 5543 5539 5538 5537 5536 5532 5531 5525 5518 5514 5507 5499 5497 5491 5487 5483 5478 5473 5471 5468 5464 5463 5458 5454 5454 5455 5449 5444 5440 5433 5425 5422 5417 5413 5409 5404 5398 5392
5546 5546 5545 5545 5541 5539 5536 5535 5530 5528 5525 5521 5516 5511 5505 5498 5491 5487 5484 5477 5471 5467 5465 5462 5459 5456 5453 5449 5446 5446 5444 5440 5434 5429 5423 5417 5413 5408 5404 5399 5395 5391 5387